Find Starlink 5611

NORAD ID: 55761 Int'l Des: 2023-028 Owner: SPXS Country: US Constellation: starlink operational
LEOCIRCULAR

当前视图

正在加载3D地球...

About Starlink 5611

Starlink 5611 (NORAD 55761) is a starlink constellation satellite (v1.5) launched Mar 3, 2023 by SPXS of US. It operates in LEO, CIRCULAR orbit with a mass of 305.00 kg.

关于 Starlink 5611

正在加载描述...

即将过境

Passes for default location (London). Set your location on the main map for personalized predictions.

高度历史

Loading altitude history...

两行轨道根数

1 55761U 23028W 26178.47714829 -.00000140 00000-0 -39314-5 0 9997
2 55761 69.9996 307.8268 0003172 269.8105 90.2690 14.98328803182971
Epoch: Jun 27, 2026 • Age: 9 hours

当前状态

高度 574.8 km
速度 7.57 km/s
星下点 -3.55°S, 91.97°W
发射日期 Mar 3, 2023
运行时间 3.3 years
类型 internet

技术详情

分类 Payload
质量 305.00 kg
干质量 290.00 kg
总质量 305.00 kg
长度 0.20 m
直径 2.80 m
跨度 9.00 m
形状 Box + pan
制造商 SPXS
平台类型 Starlink
阶段状态 In Orbit
所有者/国家 SPXS/US

Most Searched